Regional Weather Roundup
Issued by NWS

Home | Current Version | Previous Version | Graphics & Text | Print | Product List | Glossary On
Versions: 1 2 3 4 5 6 7 8 9 10 11 12 13 14 15 16 17 18 19 20 21 22 23 24 25 26 27 28 29 30 31 32 33 34 35 36 37 38 39 40 41 42 43 44 45 46 47 48 49 50
000
ASUS44 KMEG 280400
RWRTN
TENNESSEE HOURLY STATE WEATHER ROUNDUP
NATIONAL WEATHER SERVICE MEMPHIS TN
1100 PM CDT SAT MAY 27 2017

TNZ002-004-019-021-049-052-054-088>092-280500-
WEST TENNESSEE

CITY           SKY/WX    TMP DP  RH WIND       PRES   REMARKS
MEMPHIS INTL   CLOUDY    83  74  74 SW5       29.86R
NWS MEMPHIS      N/A     80 N/A N/A MISG        N/A
JACKSON        TSTM      65  64  97 E17G25    29.94R VSB 1
DYERSBURG        N/A    N/A N/A N/A MISG        N/A  THUNDER
$$

TNZ008-025-027-028-033-062-065-066-280500-
NORTH MIDDLE TENNESSEE

CITY           SKY/WX    TMP DP  RH WIND       PRES   REMARKS
NASHVILLE      CLOUDY    66  63  90 CALM      29.94R
CLARKSVILLE    LGT RAIN  64  62  93 CALM      29.90F
SMYRNA         CLOUDY    65  63  93 CALM      29.94R THUNDER
CROSSVILLE     LGT RAIN  60  59  96 S3        30.01F
$$

TNZ061-075-076-078-094-096-097-280500-
SOUTH MIDDLE TENNESSEE

CITY           SKY/WX    TMP DP  RH WIND       PRES   REMARKS
WINCHESTER     MOCLDY    63  63 100 S5        29.94F
$$

TNZ017-018-042-046-047-280500-
NORTHEAST TENNESSEE

CITY           SKY/WX    TMP DP  RH WIND       PRES   REMARKS
TRI CITIES     TSTM      63  62  97 W3        29.99F FOG
$$

TNZ012-013-036-069-073-074-280500-
CENTRAL EAST TENNESSEE

CITY           SKY/WX    TMP DP  RH WIND       PRES   REMARKS
KNOXVILLE      TSTM      64  62  93 S10       30.01F FOG
OAK RIDGE      LGT RAIN  65  62  90 S9        29.98F
GATLINBURG     CLOUDY    63  61  94 SW9       30.05R
$$

TNZ083-085-099-280500-
SOUTHEAST TENNESSEE

CITY           SKY/WX    TMP DP  RH WIND       PRES   REMARKS
CHATTANOOGA    TSTM      66  64  93 N12       30.02F FOG
$$

SKY/WX REPORTED AS FAIR MEANS FEW OR NO CLOUDS BELOW
12 THOUSAND FEET.




USA.gov is the U.S. government's official web portal to all federal, state and local government web resources and services.